STARLINK-2563 (48410 NORAD) Tracking and Keplerian Element Data

This shows tracking and keplerian element data for the satellite.

Feedback or suggestion? Click here.




ElementValue
Catalog48410
NameSTARLINK-2563
Epoch Orbit369
Epoch Day214.91667824
Epoch Year2021
RAAN316.1699
Inclination53.0506
Eccentricity0.0003908
Argument of Perigee8.4286
Mean Anonmoly230.8809
Mean Motion15.73240192
Decay Rate-0.00022536
L11 48410U 21038BK 21214.91667824 -.00022536 00000-0 -15617-3 0 9997
L22 48410 53.0506 316.1699 0003908 8.4286 230.8809 15.73240192 3693

Live tracking and technical data element details for STARLINK-2563 (NORAD 48410). STARLINK-2563 can be tracked NOW for your location showing map with azimuth and elevation plus other details from your city location.

Track the satellite on the map from your city or location and see movement details for azimuth, elevation, latitude, longitude, range, height, and movement on the map or in text.







IsCatalogInMostPopularTable: catalog: 48410, numindb: 28
Update: records affected: 1



GetName: 48410 STARLINK-2563

Hit Count: updated at: Tue, 03 Aug 2021 21:08:14 GMT